User: anonymous   Login
Location: Newark
(31.5350°N, 35.0986°E)
Time: 05:43:07
(UTC+00:00)
Language:

A-11 Canister half - Orbit

View from above orbital plane
View from above orbital plane
View from above satellite
View from above satellite

Ground track
Ground track

The orbit data is extracted from the following two-line orbital elements,

1    53U 60009E   19262.35206112 -.00000098  00000-0 -12299-3 0  9998
2    53  47.2787  18.0923 0097079 357.3244   2.7017 12.17229217635429
Epoch (UTC): 19 September 2019 08:26:58
Eccentricity: 0.0097079
inclination: 47.2787°
perigee height: 1527 km
apogee height: 1682 km
right ascension of ascending node: 18.0923°
argument of perigee: 357.3244°
revolutions per day: 12.17229217
mean anomaly at epoch: 2.7017°
orbit number at epoch: 63542

The dashed part of the orbit path shows where the satellite is in the earth's shadow,  

DLR